Hourly Weather Roundup
Issued by NWS Central Illinois

Home | Current Version | Previous Version | Text Only | Print | Product List | Glossary On
Versions: 1 2 3 4 5 6 7 8 9 10 11 12 13 14 15 16 17 18 19 20 21 22 23 24 25 26 27 28 29 30 31 32 33 34 35 36 37 38 39 40 41 42 43 44 45 46 47 48 49 50
000
NZUS43 KILX 202210
HWRILX

Area Weather Roundup
National Weather Service Lincoln IL
500 PM CDT WED SEP 20 2017

NOTE:  "FAIR" indicates few or no clouds below 12,000 feet, with
       no sigificant weather and/or obstructions to visibility.


CITY           SKY/WX    TMP DP  RH WIND       PRES   REMARKS
Bloomington    SUNNY     90  69  50 S15       29.89F HX  94
Champaign      SUNNY     93  65  39 S14       29.90F HX  95
Danville       SUNNY     91  65  41 S10       29.90S HX  93
Decatur        SUNNY     91  68  46 SW14G20   29.89S HX  95
Effingham      MOSUNNY   92  68  44 SE8       29.93S HX  96
Flora          SUNNY     93  69  46 SW9       29.92S HX  98
Galesburg      SUNNY     90  69  49 S15G21    29.81S HX  94
Jacksonville   SUNNY     93  65  39 S13       29.85S HX  95
Lacon          SUNNY     92  68  45 S15G25    29.82F HAZE    HX  95
Lawrenceville  SUNNY     90  69  50 S13       29.94S HX  94
Litchfield     SUNNY     91  69  48 S10       29.89S HX  96
$$


CITY           SKY/WX    TMP DP  RH WIND       PRES   REMARKS
Lincoln        SUNNY     92  69  46 S10G16    29.86F HX  97
Macomb         SUNNY     92  68  44 S15       29.83S HX  96
Mattoon        SUNNY     91  68  46 S7        29.91S HX  95
Mt Carmel AP   MOSUNNY   90  68  48 S10       29.93S HX  94
Olney-Noble AP MOSUNNY   92  63  38 SW8       29.93S HX  92
Paris AP       SUNNY     92  68  45 S12       29.93S HX  96
Peoria         SUNNY     92  69  47 S12G25    29.83F HX  97
Pontiac        SUNNY     93  67  42 S14G21    29.87S HX  96
Rantoul        SUNNY     92  69  45 SW8       29.90S HX  97
Robinson       MOSUNNY   90  70  51 SW7       29.94S HX  94
Springfield    SUNNY     94  69  44 S9        29.86F HX  99
Taylorville    SUNNY     92  68  45 SW10      29.89S HX  95
$$

...REGIONAL REPORTS...


CITY           SKY/WX    TMP DP  RH WIND       PRES   REMARKS
Chicago O`Hare MOSUNNY   91  66  43 S20       29.84F HX  93
Kankakee       SUNNY     90  66  45 S13       29.89F HX  92
Moline         SUNNY     93  68  43 S12G20    29.78R HX  97
Mount Sterling SUNNY     92  69  47 S13G20    29.82F HX  97
Mount Vernon     N/A     91  70  49 SW13      29.92S HX  96
Pittsfield     SUNNY     94  71  47 S13G18    29.85S HX 100
Quincy         SUNNY     93  68  43 S17       29.81F HX  97
Rockford       MOSUNNY   90  67  46 S18       29.81F HX  93
$$


CITY           SKY/WX    TMP DP  RH WIND       PRES   REMARKS
Burlington     SUNNY     92  72  51 S15       29.79R HX  99
Cedar Rapids   CLOUDY    87  70  56 SW13      29.79S HX  92
Des Moines     PTSUNNY   85  67  54 N10       29.79R HX  87
Kirksville     MOSUNNY   91  71  51 SW9       29.82R HX  97
Ottumwa        CLOUDY    87  70  56 SW9       29.80S HX  92
St Louis       MOSUNNY   94  68  42 S10       29.87S HX  98
$$


CITY           SKY/WX    TMP DP  RH WIND       PRES   REMARKS
Terre Haute    SUNNY     90  67  46 S10       29.94S HX  93
Evansville     MOSUNNY   89  70  53 S5        29.94F HX  94
Indianapolis   MOSUNNY   88  67  49 SW7       29.96F HX  91
Lafayette      SUNNY     88  68  51 S7        29.92S HX  91
Madison        PTSUNNY   89  69  51 S13G22    29.78R HX  93
Milwaukee      MOSUNNY   85  69  58 S16G28    29.82F HX  89
$$





USA.gov is the U.S. government's official web portal to all federal, state and local government web resources and services.